Find Starlink 35909

NORAD ID: 66496 Int'l Des: 2025-263 Owner: SPXS Country: US Constellation: starlink operational
LEOCIRCULAR

当前视图

正在加载3D地球...

About Starlink 35909

Starlink 35909 (NORAD 66496) is a starlink constellation satellite (v2 mini) launched Nov 15, 2025 by SPXS of US. It operates in LEO, CIRCULAR orbit with a mass of 575.00 kg.

即将过境

Passes for default location (London). Set your location on the main map for personalized predictions.

高度历史

Loading altitude history...

两行轨道根数

1 66496U 25263M 26237.04111678 .00013520 00000-0 49969-3 0 9998
2 66496 42.9990 120.1468 0003444 247.4367 112.6120 15.27592953 44645
Epoch: Aug 25, 2026 • Age: 22 hours

当前状态

高度 494.0 km
远地点 / 近地点 N/A
速度 7.62 km/s
星下点 -43.14°S, 70.8°E
发射日期 Nov 15, 2025
运行时间 0.7 years
类型 internet

技术详情

分类 Payload
质量 575.00 kg
干质量 530.00 kg
总质量 575.00 kg
长度 0.30 m
直径 4.10 m
跨度 29.00 m
形状 Box + pan
制造商 SPXS
平台类型 Starlink V2MO
阶段状态 In Orbit
所有者/国家 SPXS/US

Most Searched